Flag for U.S.A. Weather past 2 weeks in St. Petersburg, Florida, U.S.A.

80 °F

Partly sunny.

Feels Like: 82 °F
Forecast: 71 / 83 °F
Wind: 5 mph from Southeast

Location: Whitted Airport

Current Time: Oct 6, 2015 at 3:35:06 PM

Latest Report: Oct 6, 2015 at 2:53 PM

Visibility: 10 mi

Pressure: 29.88 "Hg

Humidity: 64%

Dew point: 67 °F

Location of St. PetersburgLocation

Historic Weather in St. Petersburg — Graph


St. Petersburg temperature yesterday

Maximum temperature yesterday: 80 °F (at 2:53 PM)
Minimum temperature yesterday: 71 °F (at 4:53 AM)
Average temperature yesterday: 75 °F

Past Weeks' High & Low Weather Summary

High91 °F (Sep 21, 2:53 PM)90% (Sep 27, 5:53 PM)29.97 "Hg (Sep 27, 5:53 PM)
Low71 °F (Oct 4, 7:53 AM)38% (Sep 22, 4:53 PM)29.52 "Hg (Oct 2, 3:53 PM)
Average81 °F75%29.80 "Hg
* Reported Sep 21 1:53 PM — Oct 6 1:53 PM, St. Petersburg, Weather by CustomWeather, © 2015

Note: Actual official high and low records may vary slightly from our data, if they occured in-between our weather recording intervals... More about our weather records


St. Petersburg weather history for previous 24 hours

Time TempWeatherWind HumidityBarometerVisibility
1:53 PM
Tue, Oct 6
79 °FSunny.3 mph69%29.90 "Hg10 mi
12:53 PM79 °FSunny.7 mph72%29.91 "Hg10 mi
11:53 AM77 °FSunny.7 mph74%29.92 "Hg10 mi
10:53 AM76 °FPassing clouds.8 mph77%29.93 "Hg10 mi
9:53 AM74 °FSunny.9 mph79%29.93 "Hg10 mi
8:53 AM73 °FSunny.10 mph81%29.91 "Hg10 mi
7:53 AM72 °FPassing clouds.9 mph84%29.90 "Hg10 mi
6:53 AM73 °FMostly cloudy.12 mph88%29.87 "Hg10 mi
5:53 AM73 °FPartly cloudy.12 mph84%29.86 "Hg10 mi
4:53 AM74 °FMostly cloudy.14 mph85%29.85 "Hg10 mi
3:53 AM74 °FMostly cloudy.13 mph88%29.84 "Hg10 mi
2:53 AM75 °FOvercast.9 mph85%29.83 "Hg10 mi
1:53 AM76 °FPartly cloudy.6 mph80%29.83 "Hg10 mi
12:53 AM74 °FClear.3 mph79%29.84 "Hg10 mi
11:53 PM
Mon, Oct 5
75 °FClear.No wind76%29.84 "Hg10 mi
10:53 PM76 °FClear.3 mph74%29.84 "Hg10 mi
9:53 PM76 °FOvercast.3 mph74%29.83 "Hg10 mi
8:53 PM77 °FPartly cloudy.5 mph74%29.82 "Hg10 mi
7:53 PM77 °FPartly sunny.5 mph74%29.80 "Hg10 mi
6:53 PM77 °FScattered clouds.8 mph74%29.78 "Hg10 mi
5:53 PM78 °FMore clouds than sun.5 mph69%29.77 "Hg10 mi
4:53 PM76 °FOvercast.12 mph80%29.76 "Hg10 mi
3:53 PM79 °FMostly cloudy.9 mph69%29.75 "Hg10 mi
Weather by CustomWeather, © 2015

See weather overviewHow to use our weather pages